Kelso-Longview, WA
on Friday, November 16, 2012

Friday
Previous Day Next Day
Daily Summary
 ActualAverage (KSPB)Record (KSPB)
Temperature
Mean Temperature °F °F  
Max Temperature 48°F °F 57°F (2002)
Min Temperature 37°F °F 19°F (2014)
Degree Days
Heating Degree Days 22    
Month to date heating degree days  
Since 1 July heating degree days  
Cooling Degree Days 0    
Month to date cooling degree days  
Year to date cooling degree days  
Moisture
Dew Point 39°F   
Average Humidity 82    
Maximum Humidity 93    
Minimum Humidity 71    
Precipitation
Precipitation 0.02 in in 0.75 in (2003)
Month to date precipitation  
Year to date precipitation  
Wind
Wind Speed 5 mph   
Max Wind Speed 15 mph   
Max Gust Speed 21 mph   
Visibility 10 miles   
Events     

Key: T is trace of precipitation, MM is missing value
Source: NWS Daily Summary
Time(PST)TemperatureDew PointHumidity Pressure Visibility Wind DirectionWind SpeedGust SpeedPrecipitationEvents Conditions
12:15 AM 39.2°F 35.6°F 87% 29.95 in 10.0 miles Calm Calm - N/A   Overcast
12:35 AM 39.2°F 37.4°F 93% 29.96 in 6.0 miles North 3.5 mph - N/A   Overcast
12:55 AM 39.2°F 37.4°F 93% 29.95 in 2.0 miles North - - N/A   Overcast
1:15 AM 39.2°F 35.6°F 87% 29.95 in 9.0 miles Calm Calm - N/A   Scattered Clouds
1:35 AM 39.2°F 35.6°F 87% 29.95 in 10.0 miles Calm Calm - N/A   Scattered Clouds
1:55 AM 37.4°F 35.6°F 93% 29.94 in 10.0 miles Calm Calm - N/A   Clear
2:15 AM 37.4°F 35.6°F 93% 29.94 in 10.0 miles Calm Calm - N/A   Mostly Cloudy
2:35 AM 37.4°F 35.6°F 93% 29.94 in 10.0 miles Calm Calm - N/A   Overcast
2:55 AM 39.2°F 35.6°F 87% 29.94 in 10.0 miles Calm Calm - N/A   Overcast
3:15 AM 39.2°F 35.6°F 87% 29.92 in 10.0 miles Calm Calm - N/A   Overcast
3:35 AM 39.2°F 35.6°F 87% 29.93 in 10.0 miles Calm Calm - N/A   Overcast
3:55 AM 39.2°F 35.6°F 87% 29.92 in 10.0 miles Calm Calm - N/A   Overcast
4:15 AM 39.2°F 35.6°F 87% 29.92 in 10.0 miles Calm Calm - N/A   Overcast
4:35 AM 39.2°F 35.6°F 87% 29.92 in 10.0 miles Calm Calm - N/A   Overcast
4:55 AM 39.2°F 35.6°F 87% 29.92 in 10.0 miles Calm Calm - N/A   Overcast
5:15 AM 39.2°F 35.6°F 87% 29.92 in 10.0 miles Calm Calm - N/A   Overcast
5:35 AM 39.2°F 35.6°F 87% 29.93 in 10.0 miles Calm Calm - N/A   Overcast
5:55 AM 39.2°F 37.4°F 93% 29.93 in 10.0 miles WNW 3.5 mph - N/A   Overcast
6:15 AM 39.2°F 35.6°F 87% 29.93 in 10.0 miles Calm Calm - N/A   Overcast
6:35 AM 41.0°F 37.4°F 87% 29.92 in 10.0 miles Calm Calm - N/A   Overcast
6:55 AM 41.0°F 37.4°F 87% 29.92 in 10.0 miles Calm Calm - N/A   Overcast
7:15 AM 42.8°F 37.4°F 81% 29.92 in 10.0 miles SE 4.6 mph - N/A   Overcast
7:35 AM 42.8°F 37.4°F 81% 29.92 in 10.0 miles SE 6.9 mph - N/A   Overcast
7:55 AM 44.6°F 37.4°F 76% 29.92 in 10.0 miles SE 12.7 mph 20.7 mph N/A   Overcast
8:15 AM 44.6°F 37.4°F 76% 29.93 in 10.0 miles SSE 8.1 mph 17.3 mph N/A   Overcast
8:35 AM 44.6°F 37.4°F 76% 29.93 in 10.0 miles South 9.2 mph 17.3 mph N/A   Overcast
8:55 AM 44.6°F 39.2°F 81% 29.93 in 10.0 miles SSE 11.5 mph - N/A   Overcast
9:15 AM 44.6°F 37.4°F 76% 29.93 in 10.0 miles SE 11.5 mph 18.4 mph N/A   Overcast
9:35 AM 44.6°F 37.4°F 76% 29.93 in 10.0 miles SSE 12.7 mph 16.1 mph N/A   Overcast
9:55 AM 44.6°F 39.2°F 81% 29.93 in 10.0 miles SSE 8.1 mph - N/A   Overcast
10:15 AM 46.4°F 37.4°F 71% 29.93 in 10.0 miles SSE 15.0 mph 18.4 mph N/A   Overcast
10:35 AM 46.4°F 37.4°F 71% 29.93 in 10.0 miles SSE 4.6 mph - N/A   Overcast
10:55 AM 46.4°F 39.2°F 76% 29.93 in 10.0 miles SSE 4.6 mph - N/A   Overcast
11:15 AM 46.4°F 39.2°F 76% 29.92 in 10.0 miles SSE 5.8 mph - N/A   Overcast
11:35 AM 46.4°F 39.2°F 76% 29.90 in 10.0 miles SE 8.1 mph - N/A   Overcast
11:55 AM 48.2°F 39.2°F 71% 29.89 in 10.0 miles SSE 8.1 mph - N/A   Overcast
12:15 PM 48.2°F 39.2°F 71% 29.88 in 10.0 miles SSE 9.2 mph - N/A   Mostly Cloudy
12:35 PM 48.2°F 39.2°F 71% 29.88 in 10.0 miles SE 6.9 mph - N/A   Overcast
12:55 PM 48.2°F 39.2°F 71% 29.87 in 10.0 miles SSE 8.1 mph - N/A   Overcast
1:15 PM 48.2°F 39.2°F 71% 29.86 in 10.0 miles SSE 10.4 mph - N/A   Overcast
1:35 PM 48.2°F 41.0°F 76% 29.85 in 10.0 miles SSE 9.2 mph 16.1 mph N/A   Overcast
1:55 PM 48.2°F 41.0°F 76% 29.85 in 10.0 miles SSE 6.9 mph - N/A   Overcast
2:15 PM 48.2°F 41.0°F 76% 29.84 in 10.0 miles SE 6.9 mph - N/A   Overcast
2:35 PM 48.2°F 41.0°F 76% 29.83 in 10.0 miles SSE 6.9 mph - N/A   Overcast
2:55 PM 48.2°F 42.8°F 82% 29.82 in 10.0 miles SE 9.2 mph - N/A   Overcast
3:15 PM 48.2°F 42.8°F 82% 29.82 in 10.0 miles SE 10.4 mph - N/A   Overcast
3:35 PM 48.2°F 42.8°F 82% 29.82 in 10.0 miles SE 11.5 mph 17.3 mph N/A   Overcast
3:55 PM 48.2°F 42.8°F 82% 29.82 in 10.0 miles SSE 10.4 mph - N/A   Overcast
4:15 PM 48.2°F 42.8°F 82% 29.81 in 10.0 miles SE 10.4 mph - N/A   Overcast
4:35 PM 48.2°F 42.8°F 82% 29.81 in 10.0 miles SSE 10.4 mph - N/A   Overcast
4:55 PM 48.2°F 42.8°F 82% 29.81 in 10.0 miles SE 9.2 mph - N/A   Overcast
5:15 PM 48.2°F 42.8°F 82% 29.80 in 10.0 miles SE 12.7 mph 17.3 mph N/A   Overcast
5:35 PM 48.2°F 42.8°F 82% 29.80 in 10.0 miles SE 12.7 mph - N/A   Overcast
5:55 PM 48.2°F 42.8°F 82% 29.79 in 10.0 miles SE 11.5 mph 17.3 mph N/A   Overcast
6:15 PM 48.2°F 42.8°F 82% 29.79 in 10.0 miles SSE 12.7 mph 16.1 mph N/A   Overcast
6:35 PM 48.2°F 42.8°F 82% 29.78 in 10.0 miles SE 12.7 mph 18.4 mph N/A   Overcast
6:55 PM 48.2°F 42.8°F 82% 29.78 in 10.0 miles SE 12.7 mph 18.4 mph N/A   Overcast
7:15 PM 48.2°F 42.8°F 82% 29.77 in 10.0 miles SSE 9.2 mph - N/A   Overcast
7:55 PM 48.2°F 42.8°F 82% 29.77 in 10.0 miles SE 9.2 mph - N/A   Overcast
8:15 PM 48.2°F 42.8°F 82% 29.76 in 10.0 miles SE 8.1 mph - N/A   Overcast
8:35 PM 48.2°F 42.8°F 82% 29.75 in 10.0 miles SE 8.1 mph - N/A   Overcast
8:55 PM 48.2°F 42.8°F 82% 29.75 in 10.0 miles SE 8.1 mph - N/A   Overcast
9:15 PM 48.2°F 42.8°F 82% 29.77 in 10.0 miles SSE 11.5 mph - N/A   Overcast
9:35 PM 48.2°F 42.8°F 82% 29.77 in 9.0 miles SE 8.1 mph - 0.01 in   Overcast
9:55 PM 48.2°F 42.8°F 82% 29.75 in 10.0 miles SE 6.9 mph - 0.02 in   Overcast
10:15 PM 48.2°F 42.8°F 82% 29.74 in 10.0 miles SSE 8.1 mph - N/A   Mostly Cloudy
10:35 PM 48.2°F 42.8°F 82% 29.74 in 10.0 miles SSE 11.5 mph 16.1 mph N/A   Partly Cloudy
10:55 PM 48.2°F 42.8°F 82% 29.73 in 10.0 miles SE 9.2 mph - N/A   Mostly Cloudy
11:15 PM 48.2°F 41.0°F 76% 29.72 in 10.0 miles SSE 9.2 mph - N/A   Partly Cloudy
11:35 PM 48.2°F 41.0°F 76% 29.72 in 10.0 miles SE 11.5 mph 17.3 mph N/A   Mostly Cloudy
11:55 PM 48.2°F 41.0°F 76% 29.72 in 10.0 miles SSE 11.5 mph - N/A   Overcast
Moon Phase
Nov. 16 Nov. 20 Nov. 28 Dec. 06 Dec. 13
Sunrise:07:14 AM (PST) Moon Rise:10:16 AM (PST)11/16
Sunset:04:37 PM (PST) Moon Set:07:41 PM (PST)11/16

Copyright © 2014 The Weather Underground, Inc.